When you browse on this site, cookies collect data to enhance your experience and personalize the content and advertising you see.
Visit our Privacy Policy to learn more. By continuing to use the site, you agree to this use of cookies and data.
  • en France
  • Liste des pays
  • À 7 jours
  • Température de l'eau
  • Carte satellitaire
  • Carte météo
  • Widgets météo
  • user-avatar
    Se connecter

    Météo par heure à Kyoustendil

    Ce jour, 25 Mai, Samedi

    Heure Température Précipitation Vent Pression Humidité
    00:00 +3°C° 0 mm 1 m/s 620 mmHg 91%
    01:00 +3°C° 0 mm 1 m/s 620 mmHg 91%
    02:00 +3°C° 0 mm 1 m/s 620 mmHg 92%
    03:00 +3°C° 0 mm 1 m/s 620 mmHg 92%
    04:00 +2°C° 0 mm 1 m/s 620 mmHg 92%
    05:00 +4°C° 0 mm 1 m/s 621 mmHg 87%
    06:00 +7°C° 0 mm 1 m/s 622 mmHg 81%
    07:00 +8°C° 0 mm 2 m/s 623 mmHg 75%
    08:00 +9°C° 0.2 mm 2 m/s 623 mmHg 72%
    09:00 +9°C° 0.2 mm 2 m/s 624 mmHg 69%
    10:00 +10°C° 0.2 mm 2 m/s 624 mmHg 66%
    11:00 +12°C° 0.4 mm 2 m/s 624 mmHg 64%
    12:00 +12°C° 0.4 mm 3 m/s 625 mmHg 62%
    13:00 +13°C° 0.4 mm 3 m/s 625 mmHg 60%
    14:00 +14°C° 0.5 mm 2 m/s 625 mmHg 61%
    15:00 +14°C° 0.5 mm 2 m/s 625 mmHg 61%
    16:00 +14°C° 0.5 mm 2 m/s 625 mmHg 62%
    17:00 +12°C° 0.1 mm 2 m/s 624 mmHg 68%
    18:00 +10°C° 0.1 mm 1 m/s 623 mmHg 75%
    19:00 +8°C° 0.1 mm 1 m/s 623 mmHg 82%
    20:00 +7°C° 0 mm 1 m/s 623 mmHg 83%
    21:00 +7°C° 0 mm 1 m/s 623 mmHg 85%
    22:00 +6°C° 0 mm 1 m/s 624 mmHg 86%
    23:00 +6°C° 0 mm 1 m/s 623 mmHg 86%

    Demain, 26 Mai, Dimanche

    Heure Température Précipitation Vent Pression Humidité
    00:00 +5°C° 0 mm 1 m/s 623 mmHg 87%
    01:00 +5°C° 0 mm 1 m/s 623 mmHg 87%
    02:00 +5°C° 0 mm 1 m/s 623 mmHg 87%
    03:00 +5°C° 0 mm 1 m/s 623 mmHg 87%
    04:00 +5°C° 0 mm 1 m/s 623 mmHg 87%
    05:00 +6°C° 0 mm 0 m/s 624 mmHg 81%
    06:00 +8°C° 0 mm 0 m/s 625 mmHg 75%
    07:00 +11°C° 0 mm 0 m/s 626 mmHg 69%
    08:00 +12°C° 0 mm 0 m/s 626 mmHg 62%
    09:00 +15°C° 0 mm 1 m/s 627 mmHg 56%
    10:00 +18°C° 0 mm 1 m/s 628 mmHg 49%
    11:00 +18°C° 0 mm 1 m/s 628 mmHg 48%
    12:00 +18°C° 0 mm 2 m/s 628 mmHg 46%
    13:00 +18°C° 0 mm 2 m/s 628 mmHg 45%
    14:00 +18°C° 0 mm 2 m/s 627 mmHg 46%
    15:00 +18°C° 0 mm 3 m/s 627 mmHg 47%
    16:00 +18°C° 0 mm 3 m/s 627 mmHg 48%
    17:00 +16°C° 0 mm 2 m/s 626 mmHg 57%
    18:00 +13°C° 0 mm 2 m/s 626 mmHg 65%
    19:00 +11°C° 0 mm 1 m/s 625 mmHg 74%
    20:00 +10°C° 0 mm 1 m/s 625 mmHg 77%
    21:00 +9°C° 0 mm 1 m/s 625 mmHg 79%
    22:00 +9°C° 0 mm 1 m/s 625 mmHg 82%
    23:00 +8°C° 0 mm 1 m/s 625 mmHg 83%

    Après-demain, 27 Mai, Lundi

    Heure Température Précipitation Vent Pression Humidité
    00:00 +8°C° 0 mm 1 m/s 624 mmHg 84%
    01:00 +7°C° 0 mm 1 m/s 624 mmHg 85%
    02:00 +7°C° 0 mm 1 m/s 624 mmHg 86%
    03:00 +7°C° 0 mm 1 m/s 624 mmHg 86%
    04:00 +7°C° 0 mm 1 m/s 623 mmHg 87%
    05:00 +9°C° 0 mm 1 m/s 624 mmHg 80%
    06:00 +11°C° 0 mm 1 m/s 625 mmHg 73%
    07:00 +13°C° 0 mm 1 m/s 626 mmHg 66%
    08:00 +15°C° 0 mm 2 m/s 626 mmHg 61%
    09:00 +16°C° 0 mm 2 m/s 627 mmHg 56%
    10:00 +17°C° 0 mm 2 m/s 627 mmHg 51%
    11:00 +18°C° 0 mm 3 m/s 627 mmHg 51%
    12:00 +18°C° 0 mm 3 m/s 627 mmHg 51%
    13:00 +18°C° 0 mm 4 m/s 627 mmHg 51%
    14:00 +18°C° 0 mm 4 m/s 627 mmHg 54%
    15:00 +17°C° 0 mm 3 m/s 626 mmHg 58%
    16:00 +17°C° 0 mm 3 m/s 626 mmHg 61%
    17:00 +14°C° 0 mm 3 m/s 625 mmHg 67%
    18:00 +14°C° 0 mm 2 m/s 624 mmHg 72%
    19:00 +12°C° 0 mm 2 m/s 624 mmHg 78%
    20:00 +11°C° 0 mm 1 m/s 623 mmHg 82%
    21:00 +10°C° 0 mm 1 m/s 623 mmHg 85%
    22:00 +9°C° 0 mm 1 m/s 623 mmHg 88%
    23:00 +8°C° 0 mm 1 m/s 622 mmHg 88%

    28 Mai, Mardi

    Heure Température Précipitation Vent Pression Humidité
    00:00 +8°C° 0 mm 1 m/s 622 mmHg 88%
    01:00 +7°C° 0 mm 1 m/s 622 mmHg 88%
    02:00 +7°C° 0 mm 1 m/s 621 mmHg 86%
    03:00 +7°C° 0 mm 1 m/s 621 mmHg 84%
    04:00 +6°C° 0 mm 1 m/s 620 mmHg 82%
    05:00 +8°C° 0 mm 2 m/s 621 mmHg 73%
    06:00 +10°C° 0 mm 2 m/s 622 mmHg 64%
    07:00 +13°C° 0 mm 2 m/s 623 mmHg 55%
    08:00 +14°C° 0 mm 3 m/s 623 mmHg 52%
    09:00 +15°C° 0 mm 4 m/s 623 mmHg 49%
    10:00 +16°C° 0 mm 5 m/s 624 mmHg 46%
    11:00 +16°C° 0 mm 5 m/s 623 mmHg 46%
    12:00 +17°C° 0 mm 6 m/s 623 mmHg 45%
    13:00 +17°C° 0 mm 6 m/s 623 mmHg 45%
    14:00 +17°C° 0.1 mm 6 m/s 623 mmHg 48%
    15:00 +16°C° 0.1 mm 5 m/s 622 mmHg 52%
    16:00 +16°C° 0.1 mm 5 m/s 622 mmHg 55%
    17:00 +14°C° 0.5 mm 4 m/s 621 mmHg 64%
    18:00 +12°C° 0.5 mm 3 m/s 621 mmHg 72%
    19:00 +10°C° 0.5 mm 3 m/s 620 mmHg 80%
    20:00 +9°C° 0.3 mm 2 m/s 620 mmHg 83%
    21:00 +8°C° 0.3 mm 2 m/s 620 mmHg 86%
    22:00 +7°C° 0.3 mm 2 m/s 620 mmHg 89%
    23:00 +7°C° 0 mm 2 m/s 620 mmHg 90%

    29 Mai, Mercredi

    Heure Température Précipitation Vent Pression Humidité
    00:00 +6°C° 0 mm 2 m/s 620 mmHg 91%
    01:00 +6°C° 0 mm 2 m/s 620 mmHg 93%
    02:00 +6°C° 0 mm 2 m/s 620 mmHg 93%
    03:00 +6°C° 0 mm 1 m/s 620 mmHg 93%
    04:00 +6°C° 0 mm 1 m/s 620 mmHg 94%
    05:00 +8°C° 0 mm 1 m/s 621 mmHg 87%
    06:00 +9°C° 0 mm 2 m/s 622 mmHg 80%
    07:00 +12°C° 0 mm 2 m/s 623 mmHg 73%
    08:00 +13°C° 0 mm 2 m/s 623 mmHg 67%
    09:00 +14°C° 0 mm 3 m/s 624 mmHg 61%
    10:00 +16°C° 0 mm 3 m/s 624 mmHg 54%
    11:00 +17°C° 0.1 mm 4 m/s 625 mmHg 52%
    12:00 +17°C° 0.1 mm 4 m/s 625 mmHg 51%
    13:00 +18°C° 0.1 mm 4 m/s 625 mmHg 49%
    14:00 +18°C° 0.2 mm 4 m/s 625 mmHg 50%
    15:00 +17°C° 0.2 mm 4 m/s 625 mmHg 52%
    16:00 +17°C° 0.2 mm 4 m/s 625 mmHg 54%
    17:00 +14°C° 0.2 mm 3 m/s 624 mmHg 62%
    18:00 +13°C° 0.2 mm 2 m/s 624 mmHg 71%
    19:00 +10°C° 0.2 mm 2 m/s 624 mmHg 79%
    20:00 +10°C° 0 mm 1 m/s 624 mmHg 80%
    21:00 +9°C° 0 mm 1 m/s 624 mmHg 82%
    22:00 +8°C° 0 mm 1 m/s 624 mmHg 84%
    23:00 +8°C° 0 mm 1 m/s 624 mmHg 82%

    30 Mai, Jeudi

    Heure Température Précipitation Vent Pression Humidité
    00:00 +7°C° 0 mm 1 m/s 624 mmHg 81%
    01:00 +7°C° 0 mm 1 m/s 623 mmHg 79%
    02:00 +6°C° 0 mm 1 m/s 623 mmHg 78%
    03:00 +6°C° 0 mm 1 m/s 623 mmHg 77%
    04:00 +5°C° 0 mm 1 m/s 623 mmHg 75%
    05:00 +8°C° 0 mm 1 m/s 624 mmHg 69%
    06:00 +10°C° 0 mm 1 m/s 625 mmHg 63%
    07:00 +12°C° 0 mm 1 m/s 626 mmHg 57%
    08:00 +14°C° 0 mm 1 m/s 627 mmHg 53%
    09:00 +16°C° 0 mm 1 m/s 627 mmHg 49%
    10:00 +19°C° 0 mm 1 m/s 628 mmHg 44%
    11:00 +19°C° 0 mm 1 m/s 628 mmHg 43%
    12:00 +18°C° 0 mm 2 m/s 628 mmHg 42%
    13:00 +18°C° 0 mm 3 m/s 628 mmHg 41%
    14:00 +18°C° 0.1 mm 2 m/s 628 mmHg 44%
    15:00 +17°C° 0.1 mm 2 m/s 627 mmHg 47%
    16:00 +17°C° 0.1 mm 2 m/s 627 mmHg 49%
    17:00 +15°C° 0.6 mm 2 m/s 626 mmHg 59%
    18:00 +13°C° 0.6 mm 2 m/s 626 mmHg 69%
    19:00 +10°C° 0.6 mm 2 m/s 625 mmHg 79%
    20:00 +9°C° 0.6 mm 2 m/s 625 mmHg 83%
    21:00 +9°C° 0.6 mm 1 m/s 625 mmHg 86%
    22:00 +9°C° 0.6 mm 1 m/s 625 mmHg 90%
    23:00 +8°C° 0.9 mm 1 m/s 624 mmHg 92%
    Voir plus